Regional Weather Roundup
Issued by NWS

Home | Current Version | Previous Version | Text Only | Print | Product List | Glossary On
Versions: 1 2 3 4 5 6 7 8 9 10 11 12 13 14 15 16 17 18 19 20 21 22 23 24 25 26 27 28 29 30 31 32 33 34 35 36 37 38 39 40 41 42 43 44 45 46 47 48 49 50
000
ASUS45 KREV 180710
RWRNV
NEVADA REGIONAL WEATHER ROUNDUP
NATIONAL WEATHER SERVICE RENO NV
1200 AM PDT THU SEP 18 2014

NOTE: "FAIR" INDICATES FEW OR NO CLOUDS BELOW 12,000 FEET WITH NO
SIGNIFICANT WEATHER AND/OR OBSTRUCTIONS TO VISIBILITY.

NVZ001-003-004-180800-
WESTERN NEVADA

CITY           SKY/WX    TMP DP  RH WIND       PRES   REMARKS
RENO           PTCLDY    74  37  26 S26G32    29.86F
MINDEN         FAIR      70  37  30 S16G25    29.91S
FALLON         PTCLDY    70  36  28 NE5       29.83S HAZE
LOVELOCK       CLOUDY    71  36  27 CALM      29.83S HAZE
HAWTHORNE      CLEAR     81  37  21 S28G36    29.83R
$$

NVZ002-CAZ072-073-180800-
NORTHERN AND CENTRAL SIERRA

CITY           SKY/WX    TMP DP  RH WIND       PRES   REMARKS
S. LAKE TAHOE  CLEAR     65  38  36 S12G18    29.98F
TRUCKEE        CLEAR     63  39  42 SW13G24   29.97F
SQUAW VLY 8000 NOT AVBL
BLUE CANYON    CLEAR     54  42  64 SE3       30.00S
MAMMOTH LAKES  FAIR      57  37  47 SW6       30.10F
BRIDGEPORT     FAIR      61  34  36 VRB3      30.03F
$$

NVZ030-031-036-180800-
NORTHERN NEVADA

CITY           SKY/WX    TMP DP  RH WIND       PRES   REMARKS
ELKO           MOCLDY    68  44  42 VRB5      29.89S
WINNEMUCCA     CLOUDY    71  35  26 NE3       29.86S HAZE
WENDOVER       CLEAR     75  43  31 S5        29.86R
$$

NVZ035-037-180800-
CENTRAL NEVADA

CITY           SKY/WX    TMP DP  RH WIND       PRES   REMARKS
ELY            CLEAR     61  44  53 S12       30.06R
EUREKA           N/A     68  46  45 SE8       29.99R
$$

NVZ013-014-180800-
SOUTH CENTRAL NEVADA

CITY           SKY/WX    TMP DP  RH WIND       PRES   REMARKS
TONOPAH        CLEAR     72  46  39 SE9       29.98R
$$

NVZ017-020-022-180800-
SOUTHERN NEVADA

CITY           SKY/WX    TMP DP  RH WIND       PRES   REMARKS
LAS VEGAS      CLEAR     87  58  37 S7        29.76R
N. LAS VEGAS   CLEAR     84  57  39 E6        29.79R
NELLIS AFB     CLEAR     87  60  40 SE6       29.77S
HENDERSON      CLEAR     85  58  39 SW13      29.82S
MERCURY        CLEAR     78  50  37 E5        29.85R
$$


USA.gov is the U.S. government's official web portal to all federal, state and local government web resources and services.